| time (UTC) | temp F | wind direction | speed MPH | gust MPH | rain 1hr in | rain 24hr in | rain mn in | humidity % | barometer mb |
| 20260506143030 | 48 | 356 | 3.0 | 7.0 | 0.00 | 0.03 | 0.00 | 74 | 1010.7 |
| 20260506142514 | 47 | 303 | 2.0 | 7.0 | 0.00 | 0.03 | 0.00 | 73 | 1010.6 |
| 20260506142013 | 47 | 281 | 3.0 | 8.0 | 0.00 | 0.03 | 0.00 | 70 | 1010.7 |
| 20260506141531 | 47 | 311 | 4.0 | 8.0 | 0.00 | 0.03 | 0.00 | 72 | 1010.7 |
| 20260506141013 | 47 | 303 | 3.0 | 8.0 | 0.00 | 0.03 | 0.00 | 74 | 1010.4 |
| 20260506140512 | 46 | 327 | 4.0 | 8.0 | 0.00 | 0.03 | 0.00 | 72 | 1010.3 |
| 20260506140034 | 46 | 339 | 4.0 | 8.0 | 0.00 | 0.03 | 0.00 | 74 | 1010.2 |
| 20260506135511 | 46 | 14 | 3.0 | 8.0 | 0.00 | 0.03 | 0.00 | 72 | 1009.9 |
| 20260506135015 | 45 | 301 | 3.0 | 8.0 | 0.00 | 0.03 | 0.00 | 75 | 1009.9 |
| 20260506134532 | 45 | 347 | 3.0 | 8.0 | 0.00 | 0.03 | 0.00 | 76 | 1009.9 |
| 20260506134017 | 44 | 335 | 2.0 | 8.0 | 0.00 | 0.03 | 0.00 | 76 | 1009.9 |
| 20260506133515 | 44 | 349 | 2.0 | 8.0 | 0.00 | 0.03 | 0.00 | 75 | 1010.0 |
| 20260506133036 | 44 | 266 | 3.0 | 7.0 | 0.00 | 0.03 | 0.00 | 76 | 1009.9 |
| 20260506132513 | 44 | 310 | 2.0 | 7.0 | 0.00 | 0.03 | 0.00 | 76 | 1010.0 |
| 20260506132014 | 44 | 291 | 2.0 | 8.0 | 0.00 | 0.03 | 0.00 | 76 | 1009.8 |
| 20260506131534 | 45 | 2 | 2.0 | 8.0 | 0.00 | 0.03 | 0.00 | 76 | 1009.7 |
| 20260506131015 | 45 | 274 | 3.0 | 8.0 | 0.00 | 0.03 | 0.00 | 76 | 1009.7 |
| 20260506130516 | 45 | 346 | 3.0 | 7.0 | 0.00 | 0.03 | 0.00 | 76 | 1009.7 |
| 20260506130105 | 46 | 341 | 3.0 | 7.0 | 0.00 | 0.03 | 0.00 | 76 | 1009.6 |
| 20260506125514 | 45 | 349 | 2.0 | 6.0 | 0.00 | 0.03 | 0.00 | 79 | 1009.5 |
| 20260506125014 | 45 | 335 | 3.0 | 6.0 | 0.00 | 0.03 | 0.00 | 81 | 1009.3 |
| 20260506124529 | 45 | 284 | 2.0 | 5.0 | 0.00 | 0.03 | 0.00 | 83 | 1009.3 |
| 20260506124013 | 45 | 287 | 1.0 | 5.0 | 0.00 | 0.03 | 0.00 | 86 | 1009.3 |
| 20260506123512 | 44 | 339 | 1.0 | 3.0 | 0.00 | 0.03 | 0.00 | 86 | 1009.2 |
| 20260506123029 | 44 | 319 | 1.0 | 3.0 | 0.00 | 0.03 | 0.00 | 88 | 1009.3 |
| 20260506122515 | 44 | 276 | 1.0 | 3.0 | 0.00 | 0.03 | 0.00 | 87 | 1009.3 |
| 20260506122011 | 44 | 268 | 1.0 | 3.0 | 0.00 | 0.03 | 0.00 | 87 | 1009.2 |
| 20260506121532 | 43 | 322 | 1.0 | 4.0 | 0.00 | 0.03 | 0.00 | 88 | 1009.2 |
| 20260506121012 | 43 | 276 | 1.0 | 4.0 | 0.00 | 0.03 | 0.00 | 88 | 1009.3 |
| 20260506120511 | 43 | 301 | 0.0 | 4.0 | 0.00 | 0.03 | 0.00 | 88 | 1009.2 |
| 20260506120030 | 43 | 281 | 0.0 | 4.0 | 0.00 | 0.03 | 0.00 | 88 | 1009.1 |
| 20260506115511 | 43 | 279 | 1.0 | 4.0 | 0.00 | 0.03 | 0.00 | 89 | 1008.9 |
| 20260506115012 | 43 | 271 | 0.0 | 3.0 | 0.00 | 0.03 | 0.00 | 89 | 1009.0 |
| 20260506114539 | 42 | 272 | 1.0 | 3.0 | 0.00 | 0.03 | 0.00 | 89 | 1009.0 |
| 20260506114012 | 42 | 0 | 0.0 | 4.0 | 0.00 | 0.03 | 0.00 | 89 | 1008.9 |
| 20260506113514 | 42 | 276 | 1.0 | 4.0 | 0.00 | 0.03 | 0.00 | 89 | 1008.7 |
| 20260506113032 | 42 | 262 | 1.0 | 4.0 | 0.00 | 0.03 | 0.00 | 89 | 1008.7 |
| 20260506112512 | 42 | 273 | 0.0 | 2.0 | 0.00 | 0.03 | 0.00 | 89 | 1008.6 |
| 20260506112012 | 42 | 0 | 0.0 | 2.0 | 0.00 | 0.03 | 0.00 | 89 | 1008.5 |
| 20260506111531 | 42 | 0 | 0.0 | 2.0 | 0.00 | 0.03 | 0.00 | 89 | 1008.4 |
| 20260506111016 | 42 | 0 | 0.0 | 1.0 | 0.00 | 0.03 | 0.00 | 89 | 1008.2 |
| 20260506110514 | 42 | 0 | 0.0 | 2.0 | 0.00 | 0.03 | 0.00 | 89 | 1008.0 |
| 20260506110040 | 41 | 0 | 0.0 | 3.0 | 0.00 | 0.03 | 0.00 | 88 | 1007.9 |
| 20260506105512 | 41 | 0 | 0.0 | 3.0 | 0.00 | 0.03 | 0.00 | 88 | 1007.8 |
| 20260506105012 | 41 | 156 | 0.0 | 3.0 | 0.00 | 0.03 | 0.00 | 88 | 1007.7 |
| 20260506104556 | 41 | 0 | 0.0 | 2.0 | 0.00 | 0.03 | 0.00 | 88 | 1007.8 |
| 20260506104013 | 41 | 0 | 0.0 | 2.0 | 0.00 | 0.03 | 0.00 | 88 | 1007.8 |
| 20260506103513 | 41 | 0 | 0.0 | 3.0 | 0.00 | 0.03 | 0.00 | 88 | 1007.7 |
| 20260506103032 | 41 | 285 | 0.0 | 6.0 | 0.00 | 0.03 | 0.00 | 87 | 1007.7 |
| 20260506102514 | 42 | 0 | 1.0 | 6.0 | 0.00 | 0.03 | 0.00 | 87 | 1007.6 |
| 20260506102012 | 42 | 271 | 1.0 | 3.0 | 0.00 | 0.03 | 0.00 | 87 | 1007.5 |
| 20260506101532 | 42 | 0 | 1.0 | 3.0 | 0.00 | 0.03 | 0.00 | 87 | 1007.5 |
| 20260506101014 | 42 | 268 | 0.0 | 6.0 | 0.00 | 0.03 | 0.00 | 86 | 1007.4 |
| 20260506100517 | 43 | 195 | 1.0 | 6.0 | 0.00 | 0.03 | 0.00 | 86 | 1007.4 |
| 20260506100039 | 43 | 0 | 1.0 | 6.0 | 0.00 | 0.03 | 0.00 | 86 | 1007.6 |
| 20260506095512 | 43 | 0 | 0.0 | 1.0 | 0.00 | 0.03 | 0.00 | 86 | 1007.5 |
| 20260506095012 | 43 | 0 | 0.0 | 0.0 | 0.00 | 0.03 | 0.00 | 86 | 1007.5 |
| 20260506094534 | 44 | 0 | 0.0 | 0.0 | 0.00 | 0.03 | 0.00 | 85 | 1007.5 |
| 20260506094017 | 44 | 0 | 0.0 | 0.0 | 0.00 | 0.03 | 0.00 | 84 | 1007.6 |
| 20260506093513 | 44 | 0 | 0.0 | 0.0 | 0.00 | 0.03 | 0.00 | 84 | 1007.4 |
| 20260506093028 | 45 | 0 | 0.0 | 3.0 | 0.00 | 0.03 | 0.00 | 83 | 1007.4 |
| 20260506092511 | 45 | 0 | 0.0 | 3.0 | 0.00 | 0.03 | 0.00 | 82 | 1007.4 |
| 20260506092013 | 46 | 274 | 0.0 | 3.0 | 0.00 | 0.03 | 0.00 | 81 | 1007.4 |
| 20260506091532 | 46 | 0 | 0.0 | 2.0 | 0.00 | 0.03 | 0.00 | 85 | 1007.4 |
| 20260506091011 | 46 | 0 | 0.0 | 0.0 | 0.00 | 0.03 | 0.00 | 88 | 1007.3 |
| 20260506090516 | 46 | 0 | 0.0 | 0.0 | 0.00 | 0.03 | 0.00 | 87 | 1007.3 |
| 20260506090041 | 47 | 0 | 0.0 | 3.0 | 0.00 | 0.03 | 0.00 | 87 | 1007.3 |
| 20260506085514 | 47 | 0 | 0.0 | 3.0 | 0.00 | 0.03 | 0.00 | 87 | 1007.3 |
| 20260506085011 | 47 | 0 | 0.0 | 3.0 | 0.00 | 0.03 | 0.00 | 87 | 1007.4 |
| 20260506084535 | 47 | 0 | 0.0 | 3.0 | 0.00 | 0.03 | 0.00 | 87 | 1007.5 |
| 20260506084017 | 47 | 0 | 0.0 | 3.0 | 0.00 | 0.03 | 0.00 | 87 | 1007.7 |
| 20260506083512 | 47 | 0 | 0.0 | 1.0 | 0.00 | 0.03 | 0.00 | 87 | 1007.7 |
| 20260506083039 | 47 | 0 | 0.0 | 1.0 | 0.00 | 0.03 | 0.00 | 87 | 1007.7 |
| 20260506082510 | 47 | 0 | 0.0 | 1.0 | 0.00 | 0.03 | 0.00 | 87 | 1007.7 |
| 20260506082010 | 47 | 0 | 0.0 | 3.0 | 0.00 | 0.03 | 0.00 | 87 | 1007.7 |
| 20260506081530 | 47 | 0 | 0.0 | 3.0 | 0.00 | 0.03 | 0.00 | 87 | 1007.6 |
| 20260506081015 | 47 | 0 | 0.0 | 2.0 | 0.00 | 0.03 | 0.00 | 87 | 1007.6 |
| 20260506080511 | 47 | 0 | 0.0 | 1.0 | 0.00 | 0.03 | 0.00 | 87 | 1007.6 |
| 20260506073515 | 47 | 0 | 0.0 | 5.0 | 0.00 | 0.03 | 0.00 | 88 | 1007.9 |
| 20260506073030 | 47 | 0 | 0.0 | 4.0 | 0.00 | 0.03 | 0.00 | 88 | 1007.8 |
| 20260506072512 | 47 | 0 | 0.0 | 4.0 | 0.00 | 0.03 | 0.00 | 88 | 1007.9 |
| 20260506072011 | 47 | 0 | 0.0 | 4.0 | 0.00 | 0.03 | 0.00 | 88 | 1007.8 |
| 20260506071529 | 47 | 0 | 0.0 | 4.0 | 0.00 | 0.03 | 0.00 | 88 | 1007.8 |
| 20260506071012 | 47 | 0 | 0.0 | 2.0 | 0.00 | 0.03 | 0.00 | 88 | 1007.9 |
| 20260506070511 | 47 | 0 | 0.0 | 2.0 | 0.00 | 0.03 | 0.00 | 88 | 1008.0 |
| 20260506062515 | 48 | 0 | 0.0 | 5.0 | 0.00 | 0.03 | 0.00 | 89 | 1007.7 |
| 20260506062011 | 48 | 0 | 0.0 | 5.0 | 0.00 | 0.03 | 0.00 | 89 | 1007.7 |
| 20260506061532 | 48 | 0 | 0.0 | 3.0 | 0.00 | 0.03 | 0.00 | 89 | 1007.7 |
| 20260506061013 | 48 | 0 | 0.0 | 3.0 | 0.00 | 0.03 | 0.00 | 89 | 1007.7 |
| 20260506060514 | 48 | 0 | 0.0 | 1.0 | 0.00 | 0.03 | 0.00 | 89 | 1007.8 |
| 20260506051012 | 48 | 0 | 0.0 | 0.0 | 0.00 | 0.03 | 0.00 | 88 | 1008.3 |
| 20260506050510 | 48 | 0 | 0.0 | 0.0 | 0.00 | 0.03 | 0.00 | 88 | 1008.1 |
| 20260506045013 | 48 | 0 | 0.0 | 1.0 | 0.00 | 0.03 | 0.00 | 88 | 1008.3 |
| 20260506044536 | 48 | 0 | 0.0 | 1.0 | 0.00 | 0.03 | 0.00 | 88 | 1008.4 |
| 20260506044011 | 48 | 0 | 0.0 | 1.0 | 0.00 | 0.03 | 0.00 | 89 | 1008.4 |
| 20260506043516 | 48 | 0 | 0.0 | 4.0 | 0.00 | 0.03 | 0.00 | 89 | 1008.5 |
| 20260506043028 | 48 | 0 | 0.0 | 4.0 | 0.00 | 0.03 | 0.00 | 89 | 1008.4 |
| 20260506042515 | 48 | 191 | 0.0 | 3.0 | 0.00 | 0.03 | 0.00 | 89 | 1008.5 |
| 20260506042012 | 48 | 0 | 0.0 | 1.0 | 0.00 | 0.03 | 0.00 | 89 | 1008.4 |
| 20260506041528 | 48 | 0 | 0.0 | 2.0 | 0.00 | 0.03 | 0.00 | 89 | 1008.4 |
| 20260506041011 | 48 | 0 | 0.0 | 2.0 | 0.00 | 0.03 | 0.00 | 89 | 1008.5 |
| 20260506040511 | 49 | 0 | 0.0 | 3.0 | 0.00 | 0.03 | 0.00 | 89 | 1008.5 |
| 20260506040042 | 49 | 190 | 0.0 | 3.0 | 0.00 | 0.03 | 0.00 | 89 | 1008.5 |
| 20260506035510 | 49 | 0 | 0.0 | 1.0 | 0.00 | 0.03 | 0.03 | 89 | 1008.4 |
| 20260506035013 | 49 | 0 | 0.0 | 1.0 | 0.00 | 0.03 | 0.03 | 89 | 1008.5 |
| 20260506034557 | 49 | 0 | 0.0 | 3.0 | 0.00 | 0.03 | 0.03 | 88 | 1008.3 |
| 20260506034010 | 49 | 0 | 0.0 | 3.0 | 0.00 | 0.03 | 0.03 | 89 | 1008.1 |
| 20260506033511 | 49 | 202 | 0.0 | 3.0 | 0.00 | 0.03 | 0.03 | 88 | 1008.3 |
| 20260506033029 | 49 | 0 | 0.0 | 3.0 | 0.00 | 0.03 | 0.03 | 88 | 1008.5 |
| 20260506032511 | 49 | 0 | 0.0 | 1.0 | 0.00 | 0.03 | 0.03 | 88 | 1008.4 |
| 20260506032011 | 49 | 0 | 0.0 | 1.0 | 0.00 | 0.03 | 0.03 | 88 | 1008.5 |
| 20260506031530 | 49 | 0 | 0.0 | 0.0 | 0.00 | 0.03 | 0.03 | 87 | 1008.5 |
| 20260506031012 | 49 | 0 | 0.0 | 0.0 | 0.00 | 0.03 | 0.03 | 87 | 1008.8 |
| 20260506030511 | 49 | 0 | 0.0 | 0.0 | 0.00 | 0.03 | 0.03 | 87 | 1008.7 |
| 20260506030028 | 49 | 0 | 0.0 | 0.0 | 0.00 | 0.03 | 0.03 | 86 | 1008.7 |
| 20260506025512 | 49 | 0 | 0.0 | 0.0 | 0.00 | 0.03 | 0.03 | 86 | 1008.7 |
| 20260506025012 | 49 | 0 | 0.0 | 0.0 | 0.00 | 0.03 | 0.03 | 86 | 1008.5 |
| 20260506024540 | 49 | 0 | 0.0 | 0.0 | 0.00 | 0.03 | 0.03 | 85 | 1008.4 |
| 20260506024012 | 49 | 0 | 0.0 | 0.0 | 0.00 | 0.03 | 0.03 | 85 | 1008.4 |
| 20260506023514 | 49 | 0 | 0.0 | 0.0 | 0.00 | 0.03 | 0.03 | 85 | 1008.4 |
| 20260506023030 | 49 | 0 | 0.0 | 0.0 | 0.00 | 0.03 | 0.03 | 84 | 1008.4 |
| 20260506022511 | 49 | 0 | 0.0 | 0.0 | 0.00 | 0.03 | 0.03 | 84 | 1008.3 |
| 20260506022011 | 49 | 0 | 0.0 | 1.0 | 0.00 | 0.03 | 0.03 | 84 | 1008.5 |
| 20260506021543 | 49 | 0 | 0.0 | 1.0 | 0.00 | 0.03 | 0.03 | 83 | 1008.4 |
| 20260506021013 | 49 | 0 | 0.0 | 1.0 | 0.00 | 0.03 | 0.03 | 83 | 1008.5 |
| 20260506020513 | 49 | 0 | 0.0 | 1.0 | 0.00 | 0.03 | 0.03 | 83 | 1008.1 |
| 20260506020030 | 49 | 0 | 0.0 | 0.0 | 0.00 | 0.03 | 0.03 | 83 | 1008.2 |
| 20260506015512 | 49 | 0 | 0.0 | 0.0 | 0.00 | 0.14 | 0.03 | 83 | 1008.5 |
| 20260506015015 | 49 | 0 | 0.0 | 0.0 | 0.00 | 0.14 | 0.03 | 83 | 1008.5 |
| 20260506014530 | 49 | 0 | 0.0 | 0.0 | 0.00 | 0.14 | 0.03 | 83 | 1008.4 |
| 20260506014012 | 49 | 0 | 0.0 | 0.0 | 0.00 | 0.14 | 0.03 | 83 | 1008.4 |
| 20260506013512 | 49 | 0 | 0.0 | 0.0 | 0.00 | 0.14 | 0.03 | 83 | 1008.4 |
| 20260506013029 | 49 | 0 | 0.0 | 0.0 | 0.00 | 0.14 | 0.03 | 83 | 1008.3 |
| 20260506012512 | 49 | 0 | 0.0 | 0.0 | 0.00 | 0.14 | 0.03 | 83 | 1008.2 |
| 20260506012012 | 49 | 0 | 0.0 | 0.0 | 0.00 | 0.14 | 0.03 | 83 | 1008.1 |
| 20260506011531 | 49 | 0 | 0.0 | 0.0 | 0.00 | 0.14 | 0.03 | 83 | 1008.2 |
| 20260506011010 | 49 | 0 | 0.0 | 0.0 | 0.00 | 0.14 | 0.03 | 83 | 1008.1 |
| 20260506010512 | 49 | 0 | 0.0 | 0.0 | 0.00 | 0.14 | 0.03 | 82 | 1008.0 |
| 20260506010043 | 49 | 0 | 0.0 | 0.0 | 0.00 | 0.14 | 0.03 | 82 | 1008.0 |
| 20260506005512 | 49 | 0 | 0.0 | 0.0 | 0.00 | 0.14 | 0.03 | 82 | 1007.9 |
| 20260506005015 | 50 | 0 | 0.0 | 0.0 | 0.00 | 0.14 | 0.03 | 82 | 1007.9 |
| 20260506004527 | 50 | 0 | 0.0 | 0.0 | 0.00 | 0.14 | 0.03 | 82 | 1007.9 |
| 20260506004010 | 50 | 0 | 0.0 | 0.0 | 0.00 | 0.14 | 0.03 | 82 | 1007.9 |
| 20260506003512 | 50 | 0 | 0.0 | 0.0 | 0.00 | 0.14 | 0.03 | 82 | 1007.9 |
| 20260506003029 | 50 | 0 | 0.0 | 0.0 | 0.00 | 0.14 | 0.03 | 82 | 1007.8 |
| 20260506002515 | 50 | 0 | 0.0 | 0.0 | 0.00 | 0.14 | 0.03 | 81 | 1007.8 |
| 20260506002010 | 50 | 0 | 0.0 | 0.0 | 0.00 | 0.14 | 0.03 | 81 | 1007.7 |
| 20260506001528 | 50 | 0 | 0.0 | 0.0 | 0.00 | 0.14 | 0.03 | 81 | 1007.7 |
| 20260506001010 | 50 | 0 | 0.0 | 0.0 | 0.00 | 0.14 | 0.03 | 80 | 1007.6 |
| 20260506000512 | 50 | 0 | 0.0 | 0.0 | 0.00 | 0.14 | 0.03 | 80 | 1007.5 |
| 20260506000031 | 50 | 0 | 0.0 | 0.0 | 0.00 | 0.14 | 0.03 | 80 | 1007.5 |
| 20260505235511 | 50 | 0 | 0.0 | 0.0 | 0.00 | 0.14 | 0.03 | 80 | 1007.5 |
| 20260505235013 | 50 | 0 | 0.0 | 0.0 | 0.00 | 0.14 | 0.03 | 80 | 1007.4 |
| 20260505234547 | 50 | 0 | 0.0 | 0.0 | 0.00 | 0.14 | 0.03 | 80 | 1007.5 |
| 20260505234013 | 50 | 0 | 0.0 | 0.0 | 0.00 | 0.14 | 0.03 | 80 | 1007.6 |
| 20260505233516 | 50 | 0 | 0.0 | 0.0 | 0.00 | 0.14 | 0.03 | 80 | 1007.6 |
| 20260505233033 | 50 | 0 | 0.0 | 0.0 | 0.00 | 0.14 | 0.03 | 80 | 1007.5 |
| 20260505232514 | 50 | 0 | 0.0 | 0.0 | 0.00 | 0.14 | 0.03 | 80 | 1007.7 |
| 20260505232012 | 50 | 0 | 0.0 | 0.0 | 0.00 | 0.14 | 0.03 | 80 | 1007.6 |
| 20260505231532 | 50 | 0 | 0.0 | 0.0 | 0.00 | 0.14 | 0.03 | 80 | 1007.7 |
| 20260505231012 | 50 | 0 | 0.0 | 0.0 | 0.00 | 0.14 | 0.03 | 78 | 1007.8 |
| 20260505230509 | 50 | 0 | 0.0 | 3.0 | 0.00 | 0.14 | 0.03 | 78 | 1007.8 |
| 20260505230031 | 50 | 0 | 0.0 | 3.0 | 0.00 | 0.14 | 0.03 | 78 | 1007.8 |
| 20260505225511 | 50 | 170 | 0.0 | 3.0 | 0.00 | 0.14 | 0.03 | 78 | 1007.7 |
| 20260505225012 | 50 | 0 | 0.0 | 1.0 | 0.00 | 0.14 | 0.03 | 77 | 1007.6 |
| 20260505224532 | 50 | 0 | 0.0 | 1.0 | 0.00 | 0.14 | 0.03 | 78 | 1007.7 |
| 20260505224016 | 50 | 0 | 0.0 | 1.0 | 0.00 | 0.14 | 0.03 | 79 | 1007.7 |
| 20260505223511 | 50 | 0 | 0.0 | 1.0 | 0.00 | 0.14 | 0.03 | 78 | 1007.7 |
| 20260505223029 | 50 | 0 | 0.0 | 2.0 | 0.00 | 0.14 | 0.03 | 78 | 1007.7 |
| 20260505222512 | 50 | 0 | 0.0 | 2.0 | 0.00 | 0.14 | 0.03 | 78 | 1007.6 |
| 20260505222013 | 50 | 0 | 0.0 | 0.0 | 0.00 | 0.14 | 0.03 | 78 | 1007.7 |
| 20260505221529 | 49 | 0 | 0.0 | 0.0 | 0.00 | 0.14 | 0.03 | 77 | 1007.7 |
| 20260505221012 | 49 | 0 | 0.0 | 3.0 | 0.00 | 0.14 | 0.03 | 76 | 1007.8 |
| 20260505220512 | 49 | 0 | 0.0 | 3.0 | 0.00 | 0.14 | 0.03 | 76 | 1007.8 |
| 20260505220031 | 49 | 209 | 0.0 | 3.0 | 0.00 | 0.14 | 0.03 | 76 | 1007.9 |
| 20260505215512 | 49 | 0 | 0.0 | 0.0 | 0.00 | 0.14 | 0.03 | 76 | 1007.9 |
| 20260505215012 | 49 | 0 | 0.0 | 0.0 | 0.00 | 0.14 | 0.03 | 77 | 1007.9 |
| 20260505214536 | 49 | 0 | 0.0 | 0.0 | 0.00 | 0.14 | 0.03 | 77 | 1007.8 |
| 20260505214015 | 49 | 0 | 0.0 | 0.0 | 0.00 | 0.14 | 0.03 | 76 | 1008.0 |
| 20260505213512 | 49 | 0 | 0.0 | 0.0 | 0.00 | 0.14 | 0.03 | 75 | 1008.0 |
| 20260505213027 | 49 | 0 | 0.0 | 0.0 | 0.00 | 0.14 | 0.03 | 77 | 1008.0 |
| 20260505212517 | 49 | 0 | 0.0 | 0.0 | 0.00 | 0.14 | 0.03 | 75 | 1008.1 |
| 20260505212013 | 49 | 0 | 0.0 | 0.0 | 0.00 | 0.14 | 0.03 | 76 | 1008.1 |
| 20260505211540 | 48 | 0 | 0.0 | 0.0 | 0.00 | 0.14 | 0.03 | 76 | 1007.9 |
| 20260505211013 | 48 | 0 | 0.0 | 0.0 | 0.00 | 0.14 | 0.03 | 76 | 1007.9 |
| 20260505210516 | 48 | 0 | 0.0 | 0.0 | 0.00 | 0.14 | 0.03 | 75 | 1007.9 |
| 20260505210029 | 48 | 0 | 0.0 | 0.0 | 0.00 | 0.14 | 0.03 | 75 | 1008.0 |
| 20260505205512 | 48 | 0 | 0.0 | 0.0 | 0.00 | 0.14 | 0.03 | 74 | 1008.1 |
| 20260505205013 | 48 | 0 | 0.0 | 0.0 | 0.00 | 0.14 | 0.03 | 75 | 1008.0 |
| 20260505204534 | 48 | 0 | 0.0 | 0.0 | 0.00 | 0.14 | 0.03 | 74 | 1008.1 |
| 20260505204010 | 48 | 0 | 0.0 | 0.0 | 0.00 | 0.14 | 0.03 | 75 | 1008.1 |
| 20260505203513 | 48 | 0 | 0.0 | 0.0 | 0.00 | 0.14 | 0.03 | 75 | 1008.3 |
| 20260505203046 | 48 | 0 | 0.0 | 0.0 | 0.00 | 0.14 | 0.03 | 74 | 1008.3 |
| 20260505202511 | 48 | 0 | 0.0 | 0.0 | 0.00 | 0.14 | 0.03 | 76 | 1008.3 |
| 20260505202012 | 48 | 0 | 0.0 | 0.0 | 0.00 | 0.14 | 0.03 | 75 | 1008.3 |
| 20260505201531 | 48 | 0 | 0.0 | 0.0 | 0.00 | 0.14 | 0.03 | 74 | 1008.4 |
| 20260505201018 | 48 | 0 | 0.0 | 0.0 | 0.00 | 0.14 | 0.03 | 76 | 1008.4 |
| 20260505200513 | 48 | 0 | 0.0 | 0.0 | 0.00 | 0.14 | 0.03 | 75 | 1008.4 |
| 20260505200028 | 48 | 0 | 0.0 | 0.0 | 0.00 | 0.14 | 0.03 | 78 | 1008.4 |
| 20260505195512 | 48 | 0 | 0.0 | 2.0 | 0.00 | 0.14 | 0.03 | 77 | 1008.3 |
| 20260505195012 | 48 | 0 | 0.0 | 2.0 | 0.00 | 0.14 | 0.03 | 76 | 1008.2 |
| 20260505194531 | 48 | 0 | 0.0 | 0.0 | 0.00 | 0.14 | 0.03 | 78 | 1008.3 |
| 20260505194016 | 48 | 0 | 0.0 | 1.0 | 0.00 | 0.14 | 0.03 | 77 | 1008.1 |
| 20260505193513 | 48 | 0 | 0.0 | 3.0 | 0.00 | 0.14 | 0.03 | 77 | 1008.1 |
| 20260505193030 | 48 | 0 | 0.0 | 3.0 | 0.00 | 0.14 | 0.03 | 77 | 1008.1 |
| 20260505192512 | 48 | 0 | 0.0 | 2.0 | 0.00 | 0.14 | 0.03 | 77 | 1008.0 |
| 20260505192012 | 48 | 269 | 0.0 | 2.0 | 0.00 | 0.14 | 0.03 | 78 | 1008.1 |
| 20260505191529 | 48 | 0 | 0.0 | 2.0 | 0.00 | 0.14 | 0.03 | 79 | 1008.1 |
| 20260505191012 | 48 | 0 | 1.0 | 2.0 | 0.01 | 0.14 | 0.03 | 78 | 1008.0 |
| 20260505190511 | 48 | 0 | 0.0 | 2.0 | 0.02 | 0.14 | 0.03 | 77 | 1007.7 |
| 20260505190031 | 48 | 0 | 0.0 | 2.0 | 0.02 | 0.14 | 0.03 | 76 | 1007.7 |
| 20260505185513 | 48 | 0 | 0.0 | 2.0 | 0.02 | 0.14 | 0.03 | 80 | 1007.9 |
| 20260505185011 | 48 | 269 | 0.0 | 3.0 | 0.02 | 0.14 | 0.03 | 79 | 1007.8 |
| 20260505184541 | 47 | 269 | 1.0 | 3.0 | 0.03 | 0.14 | 0.03 | 76 | 1007.7 |
| 20260505184014 | 47 | 0 | 0.0 | 2.0 | 0.03 | 0.14 | 0.03 | 77 | 1007.6 |
| 20260505183524 | 47 | 295 | 0.0 | 2.0 | 0.03 | 0.14 | 0.03 | 80 | 1007.5 |
| 20260505183039 | 47 | 0 | 0.0 | 1.0 | 0.03 | 0.14 | 0.03 | 78 | 1007.7 |
| 20260505182512 | 47 | 0 | 0.0 | 1.0 | 0.03 | 0.14 | 0.03 | 79 | 1007.6 |
| 20260505182013 | 48 | 0 | 0.0 | 1.0 | 0.03 | 0.14 | 0.03 | 76 | 1007.7 |
| 20260505181531 | 48 | 0 | 0.0 | 1.0 | 0.03 | 0.13 | 0.03 | 76 | 1007.4 |
| 20260505181010 | 48 | 0 | 0.0 | 1.0 | 0.02 | 0.12 | 0.02 | 73 | 1007.5 |
| 20260505180509 | 48 | 272 | 0.0 | 2.0 | 0.01 | 0.11 | 0.01 | 72 | 1007.5 |
| 20260505180031 | 48 | 0 | 0.0 | 3.0 | 0.01 | 0.11 | 0.01 | 71 | 1007.4 |
| 20260505175510 | 49 | 0 | 0.0 | 3.0 | 0.01 | 0.11 | 0.01 | 71 | 1007.4 |
| 20260505175013 | 49 | 0 | 0.0 | 1.0 | 0.01 | 0.11 | 0.01 | 72 | 1007.3 |
| 20260505174530 | 49 | 274 | 0.0 | 3.0 | 0.00 | 0.11 | 0.00 | 72 | 1007.3 |
| 20260505174011 | 50 | 0 | 0.0 | 3.0 | 0.00 | 0.10 | 0.00 | 66 | 1007.3 |
| 20260505173511 | 51 | 272 | 1.0 | 3.0 | 0.00 | 0.10 | 0.00 | 60 | 1007.3 |
| 20260505173028 | 51 | 291 | 0.0 | 4.0 | 0.00 | 0.10 | 0.00 | 59 | 1007.4 |
| 20260505172512 | 51 | 272 | 2.0 | 4.0 | 0.00 | 0.10 | 0.00 | 58 | 1007.3 |
| 20260505172011 | 51 | 275 | 2.0 | 4.0 | 0.00 | 0.10 | 0.00 | 60 | 1007.2 |
| 20260505171529 | 52 | 334 | 1.0 | 7.0 | 0.00 | 0.10 | 0.00 | 56 | 1006.9 |
| 20260505171013 | 52 | 282 | 2.0 | 7.0 | 0.00 | 0.10 | 0.00 | 58 | 1006.9 |
| 20260505170509 | 52 | 321 | 2.0 | 6.0 | 0.00 | 0.10 | 0.00 | 60 | 1006.9 |
| 20260505170035 | 52 | 299 | 2.0 | 6.0 | 0.00 | 0.10 | 0.00 | 59 | 1006.8 |
| 20260505165510 | 52 | 295 | 2.0 | 6.0 | 0.00 | 0.10 | 0.00 | 62 | 1006.8 |
| 20260505165012 | 52 | 272 | 2.0 | 6.0 | 0.00 | 0.10 | 0.00 | 59 | 1006.8 |
| 20260505164533 | 52 | 312 | 1.0 | 7.0 | 0.00 | 0.10 | 0.00 | 59 | 1006.9 |
| 20260505164010 | 52 | 276 | 3.0 | 7.0 | 0.00 | 0.10 | 0.00 | 59 | 1007.0 |
| 20260505163512 | 52 | 337 | 2.0 | 7.0 | 0.00 | 0.10 | 0.00 | 58 | 1006.9 |
| 20260505163033 | 52 | 268 | 3.0 | 7.0 | 0.00 | 0.10 | 0.00 | 59 | 1006.8 |
| 20260505162515 | 53 | 353 | 2.0 | 7.0 | 0.00 | 0.10 | 0.00 | 60 | 1006.7 |
| 20260505162012 | 52 | 271 | 2.0 | 6.0 | 0.00 | 0.10 | 0.00 | 60 | 1006.6 |
| 20260505161530 | 52 | 283 | 2.0 | 5.0 | 0.00 | 0.10 | 0.00 | 58 | 1006.6 |
| 20260505161012 | 52 | 333 | 2.0 | 5.0 | 0.00 | 0.10 | 0.00 | 59 | 1006.5 |
| 20260505160513 | 51 | 272 | 1.0 | 4.0 | 0.00 | 0.10 | 0.00 | 61 | 1006.4 |
| 20260505153031 | 51 | 325 | 2.0 | 6.0 | 0.00 | 0.10 | 0.00 | 63 | 1006.6 |
| 20260505152512 | 51 | 314 | 1.0 | 8.0 | 0.00 | 0.10 | 0.00 | 64 | 1007.0 |
| 20260505152012 | 51 | 286 | 2.0 | 8.0 | 0.00 | 0.10 | 0.00 | 63 | 1006.7 |
| 20260505151538 | 52 | 320 | 2.0 | 8.0 | 0.00 | 0.10 | 0.00 | 64 | 1006.7 |
| 20260505151013 | 52 | 280 | 3.0 | 8.0 | 0.00 | 0.10 | 0.00 | 65 | 1006.8 |
| 20260505150515 | 53 | 275 | 3.0 | 7.0 | 0.00 | 0.10 | 0.00 | 67 | 1006.3 |